Flag for South Africa Weather past 2 weeks in Port Elizabeth, South Africa

Now
52 °F

Cool.


Feels Like: 52 °F
Forecast: 53 / 68 °F
Wind: 1 mph from North

Location: Port Elizabeth Airport

Current Time: Apr 19, 2015 at 3:20:53 AM

Latest Report: Apr 19, 2015 at 3:00 AM


Visibility: 4 mi

Pressure: 30.12 "Hg

Humidity: 94%

Dew point: 50 °F

Location of Port ElizabethLocation

Historic Weather in Port Elizabeth — Graph

°F

Port Elizabeth temperature yesterday

Maximum temperature yesterday: 70 °F (at 1:00 PM)
Minimum temperature yesterday: 59 °F (at 2:00 AM)
Average temperature yesterday: 63 °F

Past Weeks' High & Low Weather Summary

 TemperatureHumidityPressure
High81 °F (Apr 13, 1:00 PM)94% (Apr 5, 2:00 AM)30.42 "Hg (Apr 5, 2:00 AM)
Low50 °F (Apr 6, 6:00 AM)47% (Apr 12, 2:00 PM)29.86 "Hg (Apr 4, 12:00 PM)
Average63 °F77%30.12 "Hg
* Reported Apr 4 2:00 AM — Apr 19 2:00 AM, Port Elizabeth, Weather by CustomWeather, © 2015

Note: Actual official high and low records may vary slightly from our data, if they occured in-between our weather recording intervals... More about our weather records

Advertising

Port Elizabeth weather history for previous 24 hours

 ConditionsComfort  
Time TempWeatherWind HumidityBarometerVisibility
2:00 AM
Sun, Apr 19
55 °FFog.1 mph94%30.15 "HgN/A
1:00 AM57 °FPassing clouds.1 mph94%30.15 "HgN/A
12:00 AM59 °FPassing clouds.3 mph88%30.18 "HgN/A
9:00 PM
Sat, Apr 18
59 °FPassing clouds.5 mph94%30.21 "Hg5 mi
8:00 PM59 °FPassing clouds.5 mph88%30.21 "HgN/A
7:00 PM59 °FClear.3 mph94%30.21 "Hg10 mi
6:00 PM61 °FClear.3 mph88%30.21 "Hg10 mi
5:00 PM64 °FPassing clouds.7 mph78%30.21 "HgN/A
4:00 PM68 °FPassing clouds.7 mph69%30.24 "HgN/A
3:00 PM68 °FScattered clouds.8 mph69%30.24 "HgN/A
2:00 PM68 °FScattered clouds.13 mph69%30.27 "HgN/A
1:00 PM70 °FPassing clouds.12 mph64%30.30 "HgN/A
12:00 PM68 °FPassing clouds.8 mph69%30.33 "HgN/A
11:00 AM68 °FPassing clouds.8 mph69%30.33 "HgN/A
10:00 AM66 °FScattered clouds.5 mph73%30.36 "HgN/A
9:00 AM64 °FPassing clouds.2 mph78%30.36 "HgN/A
8:00 AM59 °FPassing clouds.3 mph94%30.33 "HgN/A
7:00 AM61 °FPassing clouds.3 mph83%30.33 "HgN/A
6:00 AM59 °FSunny.3 mph82%30.33 "Hg10 mi
5:00 AM59 °FClear.6 mph82%30.33 "Hg10 mi
4:00 AM59 °FClear.7 mph82%30.33 "Hg10 mi
3:00 AM59 °FClear.6 mph82%30.36 "Hg10 mi
Weather by CustomWeather, © 2015

See weather overviewHow to use our weather pages